When you browse on this site, cookies collect data to enhance your experience and personalize the content and advertising you see.
Visit our Privacy Policy to learn more. By continuing to use the site, you agree to this use of cookies and data.
  • En España
  • Lista de países
  • Para 7 días
  • Temperatura del agua
  • El tiempo en el mapa
  • Informadores
  • user-avatar
    Iniciar sesión

    Tiempo cada hora Zamar

    Hoy, 5 Junio, Viernes

    Tiempo Temperatura Precipitaciones Viento Presión Humedad
    00:00 +17°C° 0.5 mm 3 mps 583 mmHg 76%
    01:00 +17°C° 0 mm 2 mps 583 mmHg 77%
    02:00 +17°C° 0 mm 2 mps 582 mmHg 78%
    03:00 +18°C° 0 mm 1 mps 582 mmHg 79%
    04:00 +18°C° 0.1 mm 1 mps 582 mmHg 80%
    05:00 +18°C° 0.1 mm 1 mps 583 mmHg 81%
    06:00 +16°C° 0.1 mm 1 mps 583 mmHg 82%
    07:00 +18°C° 0.1 mm 2 mps 584 mmHg 74%
    08:00 +19°C° 0.1 mm 3 mps 585 mmHg 65%
    09:00 +20°C° 0.1 mm 3 mps 585 mmHg 57%
    10:00 +21°C° 0.3 mm 4 mps 586 mmHg 55%
    11:00 +22°C° 0.3 mm 4 mps 586 mmHg 53%
    12:00 +23°C° 0.3 mm 4 mps 586 mmHg 52%
    13:00 +23°C° 0.5 mm 5 mps 585 mmHg 51%
    14:00 +23°C° 0.5 mm 5 mps 585 mmHg 51%
    15:00 +23°C° 0.5 mm 5 mps 584 mmHg 50%
    16:00 +22°C° 0.8 mm 4 mps 584 mmHg 54%
    17:00 +22°C° 0.8 mm 4 mps 584 mmHg 57%
    18:00 +21°C° 0.8 mm 3 mps 584 mmHg 60%
    19:00 +21°C° 0.1 mm 4 mps 584 mmHg 61%
    20:00 +20°C° 0.1 mm 4 mps 584 mmHg 61%
    21:00 +20°C° 0.1 mm 4 mps 584 mmHg 62%
    22:00 +20°C° 0.1 mm 3 mps 584 mmHg 62%
    23:00 +20°C° 0.1 mm 3 mps 584 mmHg 63%

    Mañana, 6 Junio, Sábado

    Tiempo Temperatura Precipitaciones Viento Presión Humedad
    00:00 +19°C° 0.1 mm 2 mps 584 mmHg 63%
    01:00 +19°C° 0.1 mm 2 mps 584 mmHg 64%
    02:00 +20°C° 0.1 mm 1 mps 583 mmHg 66%
    03:00 +20°C° 0.1 mm 1 mps 583 mmHg 67%
    04:00 +20°C° 0 mm 1 mps 583 mmHg 67%
    05:00 +19°C° 0 mm 1 mps 583 mmHg 66%
    06:00 +19°C° 0 mm 1 mps 584 mmHg 66%
    07:00 +20°C° 0 mm 2 mps 585 mmHg 55%
    08:00 +22°C° 0 mm 4 mps 585 mmHg 44%
    09:00 +23°C° 0 mm 5 mps 586 mmHg 33%
    10:00 +24°C° 0 mm 6 mps 587 mmHg 31%
    11:00 +26°C° 0 mm 6 mps 587 mmHg 29%
    12:00 +27°C° 0 mm 6 mps 587 mmHg 27%
    13:00 +27°C° 0 mm 6 mps 586 mmHg 28%
    14:00 +27°C° 0 mm 5 mps 586 mmHg 29%
    15:00 +27°C° 0 mm 5 mps 586 mmHg 30%
    16:00 +26°C° 0.2 mm 4 mps 585 mmHg 34%
    17:00 +25°C° 0.2 mm 3 mps 585 mmHg 38%
    18:00 +24°C° 0.2 mm 2 mps 584 mmHg 42%
    19:00 +24°C° 0.3 mm 2 mps 584 mmHg 48%
    20:00 +23°C° 0.3 mm 1 mps 584 mmHg 53%
    21:00 +22°C° 0.3 mm 1 mps 584 mmHg 59%
    22:00 +22°C° 0 mm 1 mps 584 mmHg 59%
    23:00 +22°C° 0 mm 1 mps 583 mmHg 59%

    Pasado mañana, 7 Junio, Domingo

    Tiempo Temperatura Precipitaciones Viento Presión Humedad
    00:00 +21°C° 0 mm 1 mps 583 mmHg 60%
    01:00 +21°C° 0 mm 1 mps 583 mmHg 58%
    02:00 +19°C° 0 mm 0 mps 583 mmHg 57%
    03:00 +19°C° 0 mm 0 mps 582 mmHg 56%
    04:00 +19°C° 0 mm 0 mps 582 mmHg 57%
    05:00 +18°C° 0 mm 0 mps 582 mmHg 58%
    06:00 +18°C° 0 mm 0 mps 582 mmHg 59%
    07:00 +19°C° 0 mm 0 mps 583 mmHg 51%
    08:00 +21°C° 0 mm 0 mps 584 mmHg 43%
    09:00 +25°C° 0 mm 1 mps 585 mmHg 34%
    10:00 +26°C° 0 mm 2 mps 585 mmHg 31%
    11:00 +27°C° 0 mm 3 mps 586 mmHg 28%
    12:00 +28°C° 0 mm 3 mps 586 mmHg 24%
    13:00 +28°C° 0.1 mm 4 mps 585 mmHg 27%
    14:00 +27°C° 0.1 mm 4 mps 585 mmHg 29%
    15:00 +27°C° 0.1 mm 4 mps 585 mmHg 31%
    16:00 +26°C° 1 mm 4 mps 584 mmHg 37%
    17:00 +25°C° 1 mm 3 mps 584 mmHg 42%
    18:00 +24°C° 1 mm 3 mps 583 mmHg 47%
    19:00 +23°C° 0.4 mm 2 mps 583 mmHg 52%
    20:00 +23°C° 0.4 mm 1 mps 583 mmHg 57%
    21:00 +22°C° 0.4 mm 1 mps 583 mmHg 62%
    22:00 +22°C° 0 mm 1 mps 582 mmHg 62%
    23:00 +21°C° 0 mm 1 mps 582 mmHg 62%

    8 Junio, Lunes

    Tiempo Temperatura Precipitaciones Viento Presión Humedad
    00:00 +21°C° 0 mm 1 mps 582 mmHg 62%
    01:00 +21°C° 0 mm 1 mps 581 mmHg 60%
    02:00 +21°C° 0 mm 1 mps 581 mmHg 59%
    03:00 +20°C° 0 mm 1 mps 581 mmHg 57%
    04:00 +20°C° 0 mm 1 mps 581 mmHg 56%
    05:00 +20°C° 0 mm 1 mps 581 mmHg 56%
    06:00 +20°C° 0 mm 1 mps 582 mmHg 55%
    07:00 +22°C° 0 mm 1 mps 583 mmHg 46%
    08:00 +24°C° 0 mm 1 mps 584 mmHg 37%
    09:00 +26°C° 0 mm 2 mps 585 mmHg 28%
    10:00 +27°C° 0 mm 2 mps 585 mmHg 26%
    11:00 +28°C° 0 mm 3 mps 585 mmHg 24%
    12:00 +28°C° 0 mm 4 mps 585 mmHg 22%
    13:00 +28°C° 0 mm 3 mps 585 mmHg 23%
    14:00 +28°C° 0 mm 3 mps 584 mmHg 25%
    15:00 +28°C° 0 mm 3 mps 584 mmHg 27%
    16:00 +26°C° 0.2 mm 3 mps 583 mmHg 32%
    17:00 +25°C° 0.2 mm 3 mps 583 mmHg 38%
    18:00 +24°C° 0.2 mm 2 mps 582 mmHg 43%
    19:00 +24°C° 0 mm 2 mps 582 mmHg 44%
    20:00 +23°C° 0 mm 2 mps 583 mmHg 45%
    21:00 +23°C° 0 mm 1 mps 583 mmHg 46%
    22:00 +23°C° 0 mm 1 mps 583 mmHg 47%
    23:00 +22°C° 0 mm 1 mps 582 mmHg 49%

    9 Junio, Martes

    Tiempo Temperatura Precipitaciones Viento Presión Humedad
    00:00 +20°C° 0 mm 0 mps 582 mmHg 50%
    01:00 +19°C° 0 mm 0 mps 582 mmHg 49%
    02:00 +21°C° 0 mm 1 mps 581 mmHg 48%
    03:00 +21°C° 0 mm 1 mps 581 mmHg 47%
    04:00 +21°C° 0 mm 1 mps 581 mmHg 47%
    05:00 +21°C° 0 mm 1 mps 581 mmHg 47%
    06:00 +21°C° 0 mm 1 mps 582 mmHg 46%
    07:00 +23°C° 0 mm 1 mps 583 mmHg 38%
    08:00 +25°C° 0 mm 2 mps 584 mmHg 29%
    09:00 +27°C° 0 mm 2 mps 585 mmHg 21%
    10:00 +28°C° 0 mm 3 mps 586 mmHg 19%
    11:00 +28°C° 0 mm 3 mps 586 mmHg 17%
    12:00 +29°C° 0 mm 4 mps 586 mmHg 16%
    13:00 +29°C° 0 mm 4 mps 585 mmHg 19%
    14:00 +29°C° 0 mm 4 mps 585 mmHg 23%
    15:00 +28°C° 0 mm 4 mps 585 mmHg 26%
    16:00 +27°C° 0.3 mm 3 mps 584 mmHg 32%
    17:00 +26°C° 0.3 mm 3 mps 584 mmHg 37%
    18:00 +25°C° 0.3 mm 3 mps 583 mmHg 43%
    19:00 +24°C° 0.2 mm 2 mps 583 mmHg 46%
    20:00 +24°C° 0.2 mm 1 mps 583 mmHg 49%
    21:00 +23°C° 0.2 mm 1 mps 583 mmHg 53%
    22:00 +23°C° 0 mm 1 mps 583 mmHg 55%
    23:00 +22°C° 0 mm 1 mps 583 mmHg 58%

    10 Junio, Miércoles

    Tiempo Temperatura Precipitaciones Viento Presión Humedad
    00:00 +22°C° 0 mm 1 mps 582 mmHg 60%
    01:00 +21°C° 0 mm 1 mps 582 mmHg 59%
    02:00 +21°C° 0 mm 1 mps 581 mmHg 58%
    03:00 +21°C° 0 mm 1 mps 581 mmHg 58%
    04:00 +21°C° 0 mm 1 mps 581 mmHg 56%
    05:00 +21°C° 0 mm 1 mps 581 mmHg 55%
    06:00 +20°C° 0 mm 1 mps 582 mmHg 54%
    07:00 +23°C° 0 mm 1 mps 583 mmHg 43%
    08:00 +25°C° 0 mm 1 mps 584 mmHg 32%
    09:00 +27°C° 0 mm 2 mps 585 mmHg 22%
    10:00 +28°C° 0 mm 3 mps 585 mmHg 19%
    11:00 +29°C° 0 mm 4 mps 586 mmHg 17%
    12:00 +30°C° 0 mm 5 mps 586 mmHg 15%
    13:00 +30°C° 0 mm 5 mps 585 mmHg 17%
    14:00 +30°C° 0 mm 5 mps 585 mmHg 19%
    15:00 +29°C° 0 mm 4 mps 585 mmHg 21%
    16:00 +28°C° 0 mm 4 mps 584 mmHg 26%
    17:00 +28°C° 0 mm 4 mps 584 mmHg 30%
    18:00 +27°C° 0 mm 4 mps 583 mmHg 35%
    19:00 +26°C° 0.1 mm 3 mps 583 mmHg 41%
    20:00 +25°C° 0.1 mm 2 mps 583 mmHg 46%
    21:00 +24°C° 0.1 mm 1 mps 583 mmHg 51%
    22:00 +23°C° 0 mm 1 mps 583 mmHg 55%
    23:00 +23°C° 0 mm 1 mps 582 mmHg 58%
    Mostrar más